This is the latest recevied weather packets stored in our database for station/object N5ZP. If no packets are shown the sender has not sent any weather packets the latest 10 day(s).
| Time | Temp. | Humidity | Pressure | Rain* | Wind** | Luminosity | Snow |
|---|---|---|---|---|---|---|---|
| 1777897533 | 16.11° C | 76% | 1009.4 hPa | 0 mm | - | 42 W/m² | - |
| 1777897229 | 16.11° C | 76% | 1009.5 hPa | 0 mm | - | 35 W/m² | - |
| 1777896925 | 16.11° C | 76% | 1009.5 hPa | 0 mm | - | 29 W/m² | - |
| 1777896623 | 16.11° C | 76% | 1009.5 hPa | 0 mm | - | 22 W/m² | - |
| 1777896320 | 16.11° C | 75% | 1009.3 hPa | 0 mm | - | 20 W/m² | - |
| 1777896018 | 15.56° C | 76% | 1009.2 hPa | 0 mm | - | 17 W/m² | - |
| 1777895716 | 15.56° C | 76% | 1009.3 hPa | 0 mm | - | 12 W/m² | - |
| 1777895412 | 15.56° C | 76% | 1009.5 hPa | 0 mm | - | 9 W/m² | - |
| 1777895110 | 15.56° C | 75% | 1009.3 hPa | 0 mm | - | 5 W/m² | - |
| 1777894807 | 15.56° C | 75% | 1009.3 hPa | 0 mm | - | 3 W/m² | - |
| 1777894504 | 15.56° C | 75% | 1009.1 hPa | 0 mm | - | 1 W/m² | - |
| 1777894201 | 15.56° C | 75% | 1009.4 hPa | 0 mm | - | 1 W/m² | - |
| 1777893898 | 15.56° C | 75% | 1009.3 hPa | 0 mm | - | 0 W/m² | - |
| 1777893594 | 15.56° C | 75% | 1009.5 hPa | 0 mm | - | 0 W/m² | - |
| 1777893291 | 15.56° C | 75% | 1009.3 hPa | 0 mm | - | 0 W/m² | - |
| 1777892987 | 15.56° C | 75% | 1009.4 hPa | 0 mm | - | 0 W/m² | - |
| 1777892684 | 15.56° C | 75% | 1009.3 hPa | 0 mm | - | 0 W/m² | - |
| 1777892380 | 15.56° C | 75% | 1009.4 hPa | 0 mm | - | 0 W/m² | - |
| 1777892076 | 15.56° C | 75% | 1009.6 hPa | 0 mm | - | 0 W/m² | - |
| 1777891774 | 15.56° C | 75% | 1009.6 hPa | 0 mm | - | 0 W/m² | - |
| 1777891470 | 15.56° C | 75% | 1009.6 hPa | 0 mm | - | 0 W/m² | - |
| 1777891167 | 15.56° C | 75% | 1009.6 hPa | 0 mm | - | 0 W/m² | - |
| 1777890866 | 15.56° C | 75% | 1009.6 hPa | 0 mm | - | 0 W/m² | - |
| 1777890562 | 15.56° C | 74% | 1009.7 hPa | 0 mm | - | 0 W/m² | - |
| 1777890258 | 15° C | 75% | 1009.6 hPa | 0 mm | - | 0 W/m² | - |
* Rain latest hour (hover to see other rain measurements)
** Current wind speed in m/s (hover to see current wind gust speed)